Location: Beaurecueil
(43.5122°N, 5.5450°E)
Time: 20:28:25
(UTC+00:00)

ATLAS 2AS CENTAUR R/B - Pass Details

Date: 18 September 2020
Orbit: 939 x 1273 km, 63.7° (Epoch: 27 October)

Event Time Altitude Azimuth Distance (km) Brightness Sun altitude
Rises 19:11:23 0° 171° (S) 4,164 5.5 -16.7°
Reaches altitude 10° 19:14:42 10° 159° (SSE) 3,229 4.8 -17.3°
Enters shadow 19:16:58 17° 145° (SE) 2,716 4.3 -17.7°
Exits shadow 19:24:46 17° 70° (ENE) 2,773 4.4 -19.0°
Drops below altitude 10° 19:26:51 10° 57° (ENE) 3,262 4.9 -19.4°
Sets 19:30:12 0° 46° (NE) 4,214 5.6 -19.9°
